This is the latest recevied weather packets stored in our database for station/object K0KDS. If no packets are shown the sender has not sent any weather packets the latest 10 day(s).
| Time | Temp. | Humidity | Pressure | Rain* | Wind** | Luminosity | Snow |
|---|---|---|---|---|---|---|---|
| 1777698148 | 6.11° C | 70% | 1017.2 hPa | 0 mm | - | - | - |
| 1777697248 | 6.67° C | 68% | 1017.1 hPa | 0 mm | - | - | - |
| 1777696348 | 7.22° C | 66% | 1017 hPa | 0 mm | - | - | - |
| 1777695448 | 7.22° C | 66% | 1016.9 hPa | 0 mm | - | - | - |
| 1777694548 | 7.78° C | 64% | 1016.8 hPa | 0 mm | - | - | - |
| 1777693648 | 7.78° C | 62% | 1016.9 hPa | 0 mm | - | - | - |
| 1777692748 | 7.78° C | 62% | 1016.7 hPa | 0 mm | - | - | - |
| 1777691848 | 8.33° C | 60% | 1016.7 hPa | 0 mm | - | - | - |
| 1777690948 | 8.33° C | 59% | 1016.7 hPa | 0 mm | - | - | - |
| 1777690048 | 8.89° C | 57% | 1016.5 hPa | 0 mm | - | - | - |
| 1777689148 | 9.44° C | 56% | 1016.4 hPa | 0 mm | - | - | - |
| 1777688248 | 9.44° C | 55% | 1016.2 hPa | 0 mm | - | - | - |
| 1777687348 | 10° C | 54% | 1016 hPa | 0 mm | - | - | - |
| 1777686448 | 10° C | 52% | 1015.8 hPa | 0 mm | - | - | - |
| 1777685548 | 10.56° C | 51% | 1015.7 hPa | 0 mm | - | - | - |
| 1777684648 | 11.11° C | 50% | 1015.6 hPa | 0 mm | - | - | - |
| 1777683748 | 11.11° C | 48% | 1015.5 hPa | 0 mm | - | - | - |
| 1777682848 | 11.67° C | 47% | 1015.3 hPa | 0 mm | - | - | - |
| 1777681948 | 11.67° C | 46% | 1015.1 hPa | 0 mm | - | - | - |
| 1777681048 | 11.67° C | 45% | 1014.9 hPa | 0 mm | - | - | - |
| 1777680148 | 12.22° C | 45% | 1014.9 hPa | 0 mm | - | - | - |
| 1777679248 | 12.22° C | 43% | 1014.7 hPa | 0 mm | - | - | - |
| 1777678348 | 12.22° C | 44% | 1014.8 hPa | 0 mm | - | - | - |
| 1777677448 | 12.22° C | 43% | 1014.6 hPa | 0 mm | - | - | - |
| 1777676548 | 12.78° C | 43% | 1014.7 hPa | 0 mm | - | - | - |
* Rain latest hour (hover to see other rain measurements)
** Current wind speed in m/s (hover to see current wind gust speed)